Date,TemperatureHighF,TemperatureAvgF,TemperatureLowF,DewpointHighF,DewpointAvgF,DewpointLowF,HumidityHigh,HumidityAvg,HumidityLow,PressureMaxIn,PressureMinIn,WindSpeedMaxMPH,WindSpeedAvgMPH,GustSpeedMaxMPH,PrecipitationSumIn
2013-11-1,60.5,48.2,37.0,27.7,25.0,22.2,61,42,23,30.25,30.07,4,0,10,0.00
2013-11-2,63.9,47.2,32.6,28.1,24.7,22.3,70,44,23,30.33,30.03,1,0,4,0.00
2013-11-3,68.3,51.3,43.7,34.0,27.1,22.9,52,39,23,30.04,29.67,3,-13,6,0.00
2013-11-4,67.6,53.4,38.1,41.3,34.3,30.0,74,50,30,29.87,29.69,1,0,6,0.00
2013-11-5,55.5,45.6,36.1,42.0,30.4,15.0,84,57,37,30.26,29.72,7,0,13,0.19
2013-11-6,54.1,40.4,26.2,19.4,14.8,10.1,65,37,19,30.50,30.26,2,0,4,0.00
2013-11-7,59.9,42.7,30.7,24.7,21.2,15.4,67,44,22,30.54,30.30,0,0,2,0.00
2013-11-8,62.2,44.6,29.4,27.7,23.9,19.1,76,47,22,30.31,30.07,0,0,1,0.00
2013-11-9,68.2,47.3,32.3,27.3,24.9,22.6,72,45,18,30.23,30.12,1,0,2,0.00
2013-11-10,67.1,48.6,36.8,30.0,25.4,22.9,59,43,20,30.31,30.17,0,0,1,0.00
2013-11-11,67.5,50.3,36.2,28.4,24.6,20.8,64,39,17,30.33,30.19,2,0,6,0.00
2013-11-12,57.7,46.6,37.5,33.5,29.3,21.6,67,52,37,30.53,30.33,1,0,3,0.00
2013-11-13,55.8,42.9,30.8,37.2,32.7,26.3,85,68,48,30.52,30.17,1,0,4,0.00
2013-11-14,59.6,45.9,36.0,38.5,33.6,27.1,86,64,37,30.18,29.94,0,0,2,0.00
2013-11-15,60.9,46.1,32.4,43.3,33.0,24.2,85,62,37,29.94,29.68,4,0,9,0.21
2013-11-16,60.3,49.3,41.8,42.4,36.4,27.9,87,63,38,29.83,29.59,2,0,7,0.01
2013-11-17,58.6,47.8,36.5,31.9,29.8,27.8,73,51,35,30.15,29.82,8,0,13,0.00
2013-11-18,50.0,39.5,34.7,31.1,28.2,26.4,74,64,44,30.26,30.13,0,0,2,0.00
2013-11-19,62.1,38.6,31.0,34.8,28.7,25.5,81,69,33,30.17,29.88,1,0,5,0.00
2013-11-20,48.9,43.9,39.0,40.5,35.6,28.4,86,73,53,29.95,29.86,1,0,4,0.23
2013-11-21,56.4,47.1,41.1,44.1,40.8,34.8,88,79,57,30.08,29.94,5,0,9,0.29
2013-11-22,41.1,35.9,32.5,35.0,24.8,20.9,79,64,58,30.43,30.05,11,3,19,0.02
2013-11-23,38.0,34.1,27.3,29.2,22.3,15.9,82,62,48,30.51,30.36,11,2,16,0.01
2013-11-24,32.5,29.4,23.3,22.3,19.1,12.8,75,65,53,30.46,30.26,6,0,14,0.00
2013-11-25,45.4,34.6,28.4,28.5,25.3,22.3,82,70,48,30.43,30.22,0,0,4,0.03
2013-11-26,47.6,34.7,25.4,28.4,24.8,20.4,83,68,45,30.56,30.43,0,0,1,0.00
2013-11-27,46.5,34.4,24.6,28.2,24.4,19.9,84,68,44,30.51,30.30,0,0,2,0.00
2013-11-28,49.4,35.3,25.2,25.9,23.4,20.5,83,64,38,30.40,30.28,1,0,3,0.00
2013-11-29,53.4,37.6,25.8,30.0,25.8,20.9,87,64,37,30.47,30.32,0,0,1,0.00
2013-11-30,55.5,40.1,29.2,31.9,28.1,23.8,87,64,39,30.41,30.25,0,0,1,0.00